Back to catalog

JINJUSat 1B

JINJUSAT-1B

AliveAmateur RadioSSO
NORAD 63210·PAYLOAD·🇰🇷 South Korea

Launched Mar 15, 2025 from Vandenberg Space Force Base

Loading…

Next Passes (next 24 hours)

TLE

FreshSource: AMSAT

Epoch: Sep 14, 2026, 04:55 UTC

1 63210U 25052A   26257.20501510  .00013312  00000-0  38105-3 0  9992
2 63210  97.3867 154.1841 0005035 110.4742 249.7042 15.36055518 83750

Track JINJUSat 1B in real time with AllMySat

Download on the App Store